| time (UTC) | temp F | wind direction | speed knots | gust knots | rain 1hr in | rain 24hr in | rain mn in | humidity % | barometer mb |
| 20260507101328 | 37 | 177 | 0.0 | 0.0 | 0.00 | 0.00 | 0.00 | 99 | 1008.3 |
| 20260507100826 | 36 | 177 | 0.0 | 0.0 | 0.00 | 0.00 | 0.00 | 99 | 1008.3 |
| 20260507100324 | 36 | 177 | 0.0 | 0.0 | 0.00 | 0.00 | 0.00 | 99 | 1008.4 |
| 20260507095821 | 36 | 177 | 0.0 | 0.0 | 0.00 | 0.00 | 0.00 | 99 | 1008.2 |
| 20260507095317 | 36 | 177 | 0.0 | 0.0 | 0.00 | 0.00 | 0.00 | 99 | 1008.1 |
| 20260507094815 | 35 | 177 | 0.0 | 0.0 | 0.00 | 0.00 | 0.00 | 99 | 1008.1 |
| 20260507094311 | 35 | 177 | 0.0 | 0.0 | 0.00 | 0.00 | 0.00 | 99 | 1008.2 |
| 20260507093808 | 35 | 177 | 0.0 | 0.0 | 0.00 | 0.00 | 0.00 | 99 | 1008.5 |
| 20260507093307 | 35 | 177 | 0.0 | 0.0 | 0.00 | 0.00 | 0.00 | 99 | 1008.1 |
| 20260507092804 | 35 | 177 | 0.0 | 0.0 | 0.00 | 0.00 | 0.00 | 99 | 1008.2 |
| 20260507092300 | 35 | 177 | 0.0 | 0.0 | 0.00 | 0.00 | 0.00 | 99 | 1008.5 |
| 20260507091756 | 34 | 177 | 0.0 | 0.0 | 0.00 | 0.00 | 0.00 | 99 | 1008.2 |
| 20260507091253 | 34 | 177 | 0.0 | 0.0 | 0.00 | 0.00 | 0.00 | 99 | 1008.3 |
| 20260507090753 | 35 | 178 | 0.0 | 0.0 | 0.00 | 0.00 | 0.00 | 99 | 1008.3 |
| 20260507090250 | 35 | 178 | 0.0 | 0.0 | 0.00 | 0.00 | 0.00 | 99 | 1008.2 |
| 20260507085747 | 35 | 178 | 0.0 | 0.0 | 0.00 | 0.00 | 0.00 | 99 | 1008.0 |
| 20260507085244 | 35 | 178 | 0.0 | 0.0 | 0.00 | 0.00 | 0.00 | 99 | 1007.9 |
| 20260507084741 | 35 | 178 | 0.0 | 0.0 | 0.00 | 0.00 | 0.00 | 99 | 1007.9 |
| 20260507084237 | 35 | 178 | 0.0 | 0.0 | 0.00 | 0.00 | 0.00 | 99 | 1008.0 |
| 20260507083735 | 35 | 178 | 0.0 | 0.0 | 0.00 | 0.00 | 0.00 | 99 | 1007.9 |
| 20260507083231 | 35 | 178 | 0.0 | 0.0 | 0.00 | 0.00 | 0.00 | 99 | 1007.9 |
| 20260507082728 | 35 | 178 | 0.0 | 0.0 | 0.00 | 0.00 | 0.00 | 99 | 1008.0 |
| 20260507082223 | 35 | 178 | 0.0 | 0.0 | 0.00 | 0.00 | 0.00 | 99 | 1008.3 |
| 20260507081721 | 35 | 178 | 0.0 | 0.0 | 0.00 | 0.00 | 0.00 | 99 | 1008.3 |
| 20260507081217 | 36 | 178 | 0.0 | 0.0 | 0.00 | 0.00 | 0.00 | 99 | 1008.4 |
| 20260507080713 | 36 | 178 | 0.0 | 0.0 | 0.00 | 0.00 | 0.00 | 99 | 1008.4 |
| 20260507080210 | 36 | 178 | 0.0 | 0.0 | 0.00 | 0.00 | 0.00 | 99 | 1008.2 |
| 20260507075705 | 36 | 178 | 0.0 | 0.0 | 0.00 | 0.00 | 0.00 | 99 | 1008.4 |
| 20260507075201 | 35 | 178 | 0.0 | 0.0 | 0.00 | 0.00 | 0.00 | 99 | 1008.0 |
| 20260507074658 | 36 | 178 | 0.0 | 0.0 | 0.00 | 0.00 | 0.00 | 98 | 1008.1 |
| 20260507074156 | 37 | 178 | 0.0 | 0.0 | 0.00 | 0.00 | 0.00 | 98 | 1008.1 |
| 20260507073653 | 37 | 178 | 0.0 | 0.0 | 0.00 | 0.00 | 0.00 | 98 | 1008.0 |
| 20260507073149 | 37 | 178 | 0.0 | 0.0 | 0.00 | 0.00 | 0.00 | 98 | 1008.3 |
| 20260507072647 | 37 | 178 | 0.0 | 0.0 | 0.00 | 0.00 | 0.00 | 98 | 1008.3 |
| 20260507072143 | 37 | 178 | 0.0 | 0.0 | 0.00 | 0.00 | 0.00 | 98 | 1008.3 |
| 20260507071641 | 38 | 178 | 0.0 | 0.0 | 0.00 | 0.00 | 0.00 | 98 | 1008.4 |
| 20260507071137 | 38 | 178 | 0.0 | 0.0 | 0.00 | 0.00 | 0.00 | 98 | 1008.4 |
| 20260507070635 | 38 | 178 | 0.0 | 0.0 | 0.00 | 0.00 | 0.00 | 98 | 1008.7 |
| 20260507070131 | 39 | 178 | 0.0 | 0.0 | 0.00 | 0.00 | 0.00 | 98 | 1008.6 |
| 20260507065628 | 38 | 178 | 0.0 | 0.0 | 0.00 | 0.00 | 0.00 | 98 | 1008.5 |
| 20260507065125 | 38 | 178 | 0.0 | 0.0 | 0.00 | 0.00 | 0.00 | 98 | 1008.5 |
| 20260507064622 | 39 | 178 | 0.0 | 0.0 | 0.00 | 0.00 | 0.00 | 98 | 1008.4 |
| 20260507064121 | 39 | 178 | 0.0 | 0.0 | 0.00 | 0.00 | 0.00 | 98 | 1008.3 |
| 20260507063618 | 40 | 178 | 0.0 | 0.0 | 0.00 | 0.00 | 0.00 | 98 | 1008.5 |
| 20260507063115 | 40 | 178 | 0.0 | 0.0 | 0.00 | 0.00 | 0.00 | 98 | 1008.3 |
| 20260507062611 | 40 | 178 | 0.0 | 0.0 | 0.00 | 0.00 | 0.00 | 98 | 1008.2 |
| 20260507062109 | 40 | 178 | 0.0 | 0.0 | 0.00 | 0.00 | 0.00 | 98 | 1008.4 |
| 20260507061607 | 40 | 178 | 0.0 | 0.0 | 0.00 | 0.00 | 0.00 | 98 | 1008.5 |
| 20260507061105 | 40 | 178 | 0.0 | 0.0 | 0.00 | 0.00 | 0.00 | 98 | 1008.4 |
| 20260507060603 | 40 | 178 | 0.0 | 0.0 | 0.00 | 0.00 | 0.00 | 98 | 1008.3 |
| 20260507060059 | 40 | 178 | 0.0 | 0.0 | 0.00 | 0.00 | 0.00 | 98 | 1008.4 |
| 20260507055554 | 41 | 178 | 0.0 | 0.0 | 0.00 | 0.00 | 0.00 | 98 | 1008.3 |
| 20260507055051 | 41 | 178 | 0.0 | 0.0 | 0.00 | 0.00 | 0.00 | 98 | 1008.4 |
| 20260507054547 | 41 | 178 | 0.0 | 0.0 | 0.00 | 0.00 | 0.00 | 98 | 1008.5 |
| 20260507054044 | 41 | 178 | 0.0 | 0.0 | 0.00 | 0.00 | 0.00 | 98 | 1008.6 |
| 20260507053542 | 41 | 178 | 0.0 | 0.0 | 0.00 | 0.00 | 0.00 | 98 | 1008.7 |
| 20260507053041 | 41 | 178 | 0.0 | 0.0 | 0.00 | 0.00 | 0.00 | 98 | 1008.8 |
| 20260507052538 | 41 | 179 | 0.0 | 0.0 | 0.00 | 0.00 | 0.00 | 98 | 1008.9 |
| 20260507052034 | 41 | 165 | 0.0 | 0.0 | 0.00 | 0.00 | 0.00 | 98 | 1008.9 |
| 20260507051532 | 41 | 165 | 0.0 | 0.0 | 0.00 | 0.00 | 0.00 | 98 | 1008.7 |
| 20260507051029 | 41 | 165 | 0.0 | 0.0 | 0.00 | 0.00 | 0.00 | 98 | 1008.7 |
| 20260507050525 | 41 | 165 | 0.0 | 0.0 | 0.00 | 0.00 | 0.00 | 98 | 1009.0 |
| 20260507050022 | 41 | 165 | 0.0 | 0.0 | 0.00 | 0.00 | 0.00 | 98 | 1009.0 |
| 20260507045519 | 41 | 165 | 0.0 | 0.0 | 0.00 | 0.00 | 0.00 | 98 | 1009.0 |
| 20260507045016 | 41 | 165 | 0.0 | 0.0 | 0.00 | 0.00 | 0.00 | 98 | 1009.2 |
| 20260507044513 | 41 | 165 | 0.0 | 0.0 | 0.00 | 0.00 | 0.00 | 98 | 1009.0 |
| 20260507044009 | 41 | 165 | 0.0 | 0.0 | 0.00 | 0.00 | 0.00 | 98 | 1009.1 |
| 20260507043505 | 41 | 165 | 0.0 | 0.0 | 0.00 | 0.00 | 0.00 | 98 | 1009.1 |
| 20260507043003 | 41 | 165 | 0.0 | 0.0 | 0.00 | 0.00 | 0.00 | 98 | 1009.0 |
| 20260507042458 | 41 | 165 | 0.0 | 0.0 | 0.00 | 0.00 | 0.00 | 98 | 1009.1 |
| 20260507041954 | 41 | 165 | 0.0 | 0.0 | 0.00 | 0.00 | 0.00 | 98 | 1008.9 |
| 20260507041451 | 42 | 166 | 0.0 | 0.0 | 0.00 | 0.00 | 0.00 | 98 | 1009.0 |
| 20260507040948 | 42 | 166 | 0.0 | 0.0 | 0.00 | 0.00 | 0.00 | 98 | 1008.8 |
| 20260507040444 | 42 | 166 | 0.0 | 0.0 | 0.00 | 0.00 | 0.00 | 98 | 1008.9 |
| 20260507035940 | 42 | 166 | 0.0 | 0.0 | 0.00 | 0.93 | 0.93 | 98 | 1009.0 |
| 20260507035437 | 41 | 166 | 0.0 | 0.0 | 0.00 | 0.93 | 0.93 | 98 | 1008.8 |
| 20260507034934 | 41 | 166 | 0.0 | 0.0 | 0.00 | 0.93 | 0.93 | 98 | 1008.7 |
| 20260507034430 | 42 | 165 | 0.0 | 0.0 | 0.00 | 0.93 | 0.93 | 98 | 1008.9 |
| 20260507033929 | 42 | 120 | 0.0 | 0.0 | 0.00 | 0.93 | 0.93 | 98 | 1008.7 |
| 20260507033426 | 42 | 114 | 0.0 | 0.0 | 0.00 | 0.93 | 0.93 | 99 | 1008.8 |
| 20260507032923 | 42 | 166 | 0.0 | 0.0 | 0.00 | 0.93 | 0.93 | 99 | 1008.7 |
| 20260507032420 | 42 | 163 | 0.0 | 0.0 | 0.00 | 0.93 | 0.93 | 99 | 1008.7 |
| 20260507031915 | 42 | 159 | 0.0 | 0.0 | 0.00 | 0.93 | 0.93 | 99 | 1009.0 |
| 20260507031412 | 42 | 215 | 0.9 | 1.7 | 0.00 | 0.93 | 0.93 | 99 | 1008.8 |
| 20260507030909 | 42 | 188 | 0.0 | 0.0 | 0.00 | 0.93 | 0.93 | 99 | 1008.7 |
| 20260507030407 | 42 | 188 | 0.0 | 0.0 | 0.00 | 0.93 | 0.93 | 99 | 1008.5 |
| 20260507025903 | 42 | 181 | 0.0 | 0.0 | 0.00 | 0.93 | 0.93 | 99 | 1008.7 |
| 20260507025401 | 42 | 185 | 0.9 | 0.9 | 0.00 | 0.93 | 0.93 | 99 | 1008.7 |
| 20260507024859 | 42 | 185 | 0.0 | 0.0 | 0.00 | 0.93 | 0.93 | 98 | 1008.7 |
| 20260507024355 | 42 | 197 | 0.0 | 0.0 | 0.00 | 0.93 | 0.93 | 98 | 1008.8 |
| 20260507023851 | 42 | 189 | 0.0 | 0.0 | 0.00 | 0.93 | 0.93 | 98 | 1008.5 |
| 20260507023348 | 42 | 189 | 0.0 | 0.0 | 0.00 | 0.93 | 0.93 | 98 | 1008.5 |
| 20260507022845 | 42 | 189 | 0.0 | 0.0 | 0.00 | 0.93 | 0.93 | 98 | 1008.4 |
| 20260507022342 | 42 | 193 | 0.0 | 0.0 | 0.00 | 0.93 | 0.93 | 98 | 1008.5 |
| 20260507021838 | 42 | 200 | 0.0 | 0.0 | 0.00 | 0.93 | 0.93 | 98 | 1008.6 |
| 20260507021333 | 42 | 189 | 0.0 | 0.0 | 0.00 | 0.93 | 0.93 | 98 | 1008.4 |
| 20260507020832 | 42 | 189 | 0.9 | 1.7 | 0.00 | 0.93 | 0.93 | 98 | 1008.5 |
| 20260507020328 | 42 | 188 | 0.0 | 0.0 | 0.00 | 0.93 | 0.93 | 98 | 1009.0 |
| 20260507015825 | 42 | 187 | 0.0 | 0.0 | 0.00 | 0.93 | 0.93 | 98 | 1008.9 |
| 20260507015323 | 42 | 188 | 0.0 | 0.0 | 0.00 | 0.93 | 0.93 | 98 | 1008.6 |
| 20260507014819 | 42 | 186 | 0.0 | 0.0 | 0.00 | 0.93 | 0.93 | 98 | 1008.4 |
| 20260507014315 | 42 | 187 | 0.0 | 0.0 | 0.00 | 0.93 | 0.93 | 98 | 1008.7 |
| 20260507013812 | 42 | 189 | 0.0 | 0.0 | 0.00 | 0.93 | 0.93 | 98 | 1008.6 |
| 20260507013309 | 42 | 188 | 0.0 | 0.0 | 0.00 | 0.93 | 0.93 | 98 | 1008.5 |
| 20260507012807 | 42 | 187 | 0.0 | 0.0 | 0.00 | 0.93 | 0.93 | 98 | 1008.6 |
| 20260507012305 | 42 | 183 | 0.0 | 0.0 | 0.00 | 0.93 | 0.93 | 98 | 1008.4 |
| 20260507011800 | 42 | 188 | 0.0 | 0.0 | 0.00 | 0.93 | 0.93 | 98 | 1008.4 |
| 20260507011256 | 42 | 193 | 0.0 | 0.0 | 0.00 | 0.93 | 0.93 | 98 | 1008.6 |
| 20260507010756 | 42 | 198 | 0.0 | 0.0 | 0.00 | 0.93 | 0.93 | 98 | 1008.6 |
| 20260507010252 | 42 | 207 | 0.9 | 0.9 | 0.00 | 0.93 | 0.93 | 98 | 1008.7 |
| 20260507005750 | 42 | 189 | 0.0 | 0.9 | 0.00 | 0.93 | 0.93 | 98 | 1008.4 |
| 20260507005246 | 42 | 202 | 1.7 | 1.7 | 0.00 | 0.93 | 0.93 | 98 | 1008.5 |
| 20260507004742 | 42 | 182 | 0.0 | 0.0 | 0.00 | 0.93 | 0.93 | 98 | 1008.5 |
| 20260507004240 | 42 | 189 | 0.0 | 0.9 | 0.00 | 0.93 | 0.93 | 98 | 1008.4 |
| 20260507003736 | 42 | 252 | 1.7 | 1.7 | 0.00 | 0.93 | 0.93 | 98 | 1008.4 |
| 20260507003231 | 42 | 249 | 0.9 | 1.7 | 0.00 | 0.93 | 0.93 | 98 | 1008.1 |
| 20260507002728 | 42 | 325 | 2.6 | 3.5 | 0.00 | 0.93 | 0.93 | 97 | 1007.9 |
| 20260507002224 | 42 | 187 | 0.0 | 0.9 | 0.00 | 0.93 | 0.93 | 97 | 1008.1 |
| 20260507001721 | 42 | 172 | 0.0 | 0.0 | 0.00 | 0.93 | 0.93 | 97 | 1007.7 |
| 20260507001218 | 43 | 237 | 0.9 | 1.7 | 0.00 | 0.93 | 0.93 | 97 | 1007.7 |
| 20260507000714 | 43 | 145 | 0.0 | 0.0 | 0.00 | 0.93 | 0.93 | 97 | 1007.7 |
| 20260507000212 | 43 | 156 | 0.0 | 0.0 | 0.00 | 0.93 | 0.93 | 97 | 1007.5 |
| 20260506235707 | 43 | 127 | 0.0 | 0.9 | 0.00 | 0.93 | 0.93 | 97 | 1007.1 |
| 20260506235202 | 43 | 41 | 1.7 | 1.7 | 0.00 | 0.93 | 0.93 | 97 | 1007.4 |
| 20260506234700 | 43 | 148 | 0.0 | 0.0 | 0.00 | 0.93 | 0.93 | 97 | 1007.3 |
| 20260506234157 | 43 | 127 | 0.0 | 0.0 | 0.05 | 0.93 | 0.93 | 97 | 1007.3 |
| 20260506233654 | 43 | 58 | 0.9 | 1.7 | 0.12 | 0.93 | 0.93 | 96 | 1007.1 |
| 20260506233151 | 43 | 147 | 0.0 | 0.9 | 0.19 | 0.92 | 0.92 | 96 | 1007.0 |
| 20260506232647 | 44 | 304 | 1.7 | 2.6 | 0.24 | 0.92 | 0.92 | 96 | 1007.1 |
| 20260506232143 | 44 | 48 | 2.6 | 3.5 | 0.12 | 0.89 | 0.89 | 96 | 1007.2 |
| 20260506231640 | 47 | 204 | 4.3 | 5.2 | 0.07 | 0.88 | 0.88 | 95 | 1007.0 |
| 20260506231139 | 47 | 168 | 0.0 | 0.0 | 0.00 | 0.87 | 0.87 | 96 | 1006.5 |
| 20260506230635 | 47 | 117 | 0.0 | 0.0 | 0.05 | 0.87 | 0.87 | 96 | 1006.3 |
| 20260506230132 | 47 | 185 | 0.0 | 0.0 | 0.12 | 0.87 | 0.87 | 95 | 1006.6 |
| 20260506225628 | 47 | 183 | 0.0 | 0.0 | 0.19 | 0.86 | 0.86 | 95 | 1006.3 |
| 20260506225125 | 47 | 152 | 0.0 | 0.0 | 0.26 | 0.86 | 0.86 | 94 | 1006.4 |
| 20260506224622 | 48 | 138 | 0.0 | 0.0 | 0.19 | 0.84 | 0.84 | 94 | 1006.1 |
| 20260506224118 | 48 | 128 | 0.0 | 0.0 | 0.05 | 0.82 | 0.82 | 93 | 1006.0 |
| 20260506223614 | 48 | 128 | 0.0 | 0.0 | 0.07 | 0.81 | 0.81 | 91 | 1006.0 |
| 20260506223110 | 49 | 128 | 0.0 | 0.0 | 0.07 | 0.81 | 0.81 | 90 | 1006.0 |
| 20260506222608 | 49 | 128 | 0.0 | 0.0 | 0.00 | 0.80 | 0.80 | 89 | 1005.6 |
| 20260506222104 | 49 | 128 | 0.0 | 0.0 | 0.00 | 0.80 | 0.80 | 88 | 1005.9 |
| 20260506221602 | 49 | 128 | 0.0 | 0.0 | 0.00 | 0.80 | 0.80 | 88 | 1005.7 |
| 20260506221100 | 49 | 189 | 0.0 | 0.0 | 0.00 | 0.80 | 0.80 | 88 | 1005.6 |
| 20260506220555 | 49 | 190 | 0.0 | 0.0 | 0.00 | 0.80 | 0.80 | 87 | 1005.8 |
| 20260506220051 | 49 | 186 | 0.0 | 0.0 | 0.00 | 0.80 | 0.80 | 87 | 1005.7 |
| 20260506215548 | 49 | 186 | 0.0 | 0.0 | 0.00 | 0.80 | 0.80 | 87 | 1005.9 |
| 20260506215043 | 49 | 184 | 0.0 | 0.0 | 0.00 | 0.80 | 0.80 | 87 | 1005.7 |
| 20260506214541 | 50 | 177 | 0.0 | 0.0 | 0.00 | 0.80 | 0.80 | 86 | 1005.6 |
| 20260506214038 | 50 | 176 | 0.0 | 0.0 | 0.00 | 0.80 | 0.80 | 85 | 1005.5 |
| 20260506213536 | 50 | 176 | 0.0 | 0.0 | 0.00 | 0.80 | 0.80 | 84 | 1005.4 |
| 20260506213033 | 50 | 176 | 0.0 | 0.0 | 0.00 | 0.80 | 0.80 | 84 | 1005.7 |
| 20260506212529 | 50 | 178 | 0.0 | 0.0 | 0.00 | 0.80 | 0.80 | 84 | 1005.5 |
| 20260506212024 | 50 | 187 | 0.0 | 0.0 | 0.00 | 0.80 | 0.80 | 84 | 1005.5 |
| 20260506211520 | 50 | 118 | 0.0 | 0.0 | 0.00 | 0.80 | 0.80 | 83 | 1005.3 |
| 20260506211018 | 51 | 118 | 0.0 | 0.0 | 0.00 | 0.80 | 0.80 | 84 | 1005.5 |
| 20260506210514 | 50 | 118 | 0.0 | 0.0 | 0.00 | 0.80 | 0.80 | 83 | 1005.4 |
| 20260506210011 | 50 | 86 | 0.0 | 0.9 | 0.00 | 0.80 | 0.80 | 84 | 1005.9 |
| 20260506205508 | 50 | 169 | 0.0 | 0.0 | 0.00 | 0.80 | 0.80 | 84 | 1005.7 |
| 20260506205003 | 49 | 187 | 0.9 | 0.9 | 0.00 | 0.80 | 0.80 | 83 | 1005.8 |
| 20260506204502 | 49 | 183 | 0.0 | 0.0 | 0.00 | 0.80 | 0.80 | 85 | 1005.8 |
| 20260506203958 | 50 | 188 | 0.0 | 0.9 | 0.00 | 0.80 | 0.80 | 85 | 1005.6 |
| 20260506203456 | 50 | 161 | 0.0 | 0.0 | 0.00 | 0.80 | 0.80 | 84 | 1005.5 |
| 20260506202953 | 50 | 182 | 0.9 | 0.9 | 0.00 | 0.80 | 0.80 | 83 | 1005.5 |
| 20260506202450 | 50 | 159 | 0.0 | 0.0 | 0.00 | 0.80 | 0.80 | 83 | 1005.7 |
| 20260506201946 | 50 | 171 | 0.0 | 0.0 | 0.00 | 0.80 | 0.80 | 82 | 1005.8 |
| 20260506201444 | 50 | 135 | 0.0 | 0.0 | 0.00 | 0.80 | 0.80 | 82 | 1005.9 |
| 20260506200940 | 50 | 75 | 0.0 | 0.9 | 0.00 | 0.80 | 0.80 | 83 | 1005.7 |
| 20260506200436 | 50 | 72 | 0.9 | 0.9 | 0.00 | 0.80 | 0.80 | 83 | 1005.5 |
| 20260506195933 | 50 | 174 | 0.0 | 0.9 | 0.00 | 0.80 | 0.80 | 82 | 1005.5 |
| 20260506195430 | 50 | 204 | 1.7 | 1.7 | 0.00 | 0.80 | 0.80 | 83 | 1005.8 |
| 20260506194926 | 50 | 116 | 0.0 | 0.0 | 0.00 | 0.80 | 0.80 | 84 | 1005.7 |
| 20260506194424 | 50 | 81 | 0.0 | 0.0 | 0.00 | 0.80 | 0.80 | 83 | 1005.7 |
| 20260506193916 | 50 | 157 | 0.0 | 0.0 | 0.00 | 0.80 | 0.80 | 84 | 1005.7 |
| 20260506193413 | 50 | 180 | 0.0 | 0.0 | 0.00 | 0.80 | 0.80 | 85 | 1005.6 |
| 20260506192909 | 49 | 200 | 0.0 | 0.0 | 0.00 | 0.80 | 0.80 | 86 | 1005.8 |
| 20260506192406 | 48 | 96 | 0.0 | 0.0 | 0.00 | 0.80 | 0.80 | 86 | 1005.8 |
| 20260506191903 | 48 | 108 | 0.0 | 0.0 | 0.00 | 0.80 | 0.80 | 88 | 1005.6 |
| 20260506191359 | 48 | 48 | 0.9 | 0.9 | 0.00 | 0.80 | 0.80 | 85 | 1005.9 |
| 20260506190856 | 48 | 94 | 0.0 | 0.9 | 0.00 | 0.80 | 0.80 | 85 | 1005.6 |
| 20260506190353 | 49 | 135 | 0.0 | 0.0 | 0.00 | 0.80 | 0.80 | 86 | 1005.6 |
| 20260506185850 | 48 | 225 | 0.0 | 0.0 | 0.00 | 0.80 | 0.80 | 85 | 1005.7 |
| 20260506185346 | 48 | 44 | 0.9 | 0.9 | 0.00 | 0.80 | 0.80 | 87 | 1006.0 |
| 20260506184843 | 48 | 151 | 0.0 | 0.0 | 0.00 | 0.80 | 0.80 | 89 | 1005.9 |
| 20260506184340 | 47 | 117 | 0.0 | 0.0 | 0.00 | 0.80 | 0.80 | 91 | 1006.0 |
| 20260506183837 | 46 | 110 | 0.9 | 0.9 | 0.00 | 0.80 | 0.80 | 90 | 1006.0 |
| 20260506183332 | 46 | 143 | 0.0 | 0.0 | 0.00 | 0.80 | 0.80 | 91 | 1006.0 |
| 20260506182830 | 46 | 107 | 2.6 | 2.6 | 0.00 | 0.80 | 0.80 | 91 | 1006.0 |
| 20260506182327 | 46 | 55 | 0.9 | 1.7 | 0.00 | 0.80 | 0.80 | 91 | 1005.9 |
| 20260506181825 | 46 | 285 | 0.0 | 0.0 | 0.00 | 0.80 | 0.80 | 92 | 1005.9 |
| 20260506181322 | 46 | 33 | 2.6 | 3.5 | 0.00 | 0.80 | 0.80 | 91 | 1005.7 |
| 20260506180819 | 46 | 104 | 0.9 | 0.9 | 0.00 | 0.80 | 0.80 | 92 | 1005.7 |
| 20260506180315 | 46 | 22 | 0.0 | 0.9 | 0.00 | 0.80 | 0.80 | 92 | 1006.2 |
| 20260506175811 | 46 | 92 | 0.9 | 1.7 | 0.00 | 0.80 | 0.80 | 92 | 1006.0 |
| 20260506175308 | 46 | 146 | 0.0 | 0.0 | 0.00 | 0.80 | 0.80 | 93 | 1006.3 |
| 20260506174806 | 46 | 114 | 0.0 | 0.0 | 0.00 | 0.80 | 0.80 | 93 | 1006.1 |
| 20260506174303 | 46 | 127 | 1.7 | 1.7 | 0.00 | 0.80 | 0.80 | 92 | 1006.2 |
| 20260506173800 | 46 | 163 | 0.0 | 0.0 | 0.00 | 0.80 | 0.80 | 92 | 1005.8 |
| 20260506173257 | 46 | 42 | 0.9 | 1.7 | 0.00 | 0.80 | 0.80 | 93 | 1005.8 |
| 20260506172754 | 46 | 313 | 0.0 | 0.0 | 0.00 | 0.80 | 0.80 | 93 | 1005.6 |
| 20260506172250 | 46 | 56 | 0.9 | 0.9 | 0.00 | 0.80 | 0.80 | 94 | 1005.6 |
| 20260506171748 | 46 | 118 | 0.0 | 0.0 | 0.00 | 0.80 | 0.80 | 95 | 1005.6 |
| 20260506171245 | 46 | 126 | 0.0 | 0.0 | 0.00 | 0.80 | 0.80 | 95 | 1005.5 |
| 20260506170743 | 46 | 122 | 0.0 | 0.0 | 0.00 | 0.80 | 0.80 | 96 | 1005.5 |
| 20260506170239 | 46 | 122 | 0.0 | 0.0 | 0.00 | 0.80 | 0.80 | 96 | 1005.3 |
| 20260506165738 | 46 | 123 | 0.0 | 0.0 | 0.00 | 0.80 | 0.80 | 97 | 1005.0 |
| 20260506165234 | 45 | 106 | 0.0 | 0.0 | 0.00 | 0.80 | 0.80 | 97 | 1005.3 |
| 20260506164732 | 46 | 112 | 0.0 | 0.0 | 0.00 | 0.80 | 0.80 | 98 | 1005.3 |
| 20260506164228 | 46 | 139 | 0.0 | 0.9 | 0.00 | 0.80 | 0.80 | 98 | 1005.4 |
| 20260506163725 | 45 | 110 | 0.0 | 0.0 | 0.00 | 0.80 | 0.80 | 99 | 1005.3 |
| 20260506163220 | 45 | 41 | 1.7 | 2.6 | 0.00 | 0.80 | 0.80 | 99 | 1005.3 |
| 20260506162716 | 45 | 77 | 3.5 | 3.5 | 0.00 | 0.80 | 0.80 | 99 | 1005.3 |
| 20260506162214 | 44 | 7 | 1.7 | 1.7 | 0.00 | 0.80 | 0.80 | 99 | 1005.7 |
| 20260506161711 | 45 | 127 | 0.9 | 0.9 | 0.00 | 0.80 | 0.80 | 99 | 1005.4 |
| 20260506161208 | 45 | 125 | 0.0 | 0.0 | 0.00 | 0.80 | 0.80 | 99 | 1005.3 |
| 20260506160700 | 45 | 122 | 0.0 | 0.0 | 0.00 | 0.80 | 0.80 | 99 | 1005.3 |
| 20260506160157 | 44 | 113 | 0.0 | 0.0 | 0.00 | 0.80 | 0.80 | 99 | 1005.5 |
| 20260506155656 | 44 | 124 | 0.0 | 0.0 | 0.00 | 0.80 | 0.80 | 99 | 1005.4 |
| 20260506155152 | 44 | 103 | 0.0 | 0.9 | 0.00 | 0.80 | 0.80 | 99 | 1005.3 |
| 20260506153259 | 44 | 26 | 0.9 | 1.7 | 0.00 | 0.80 | 0.80 | 99 | 1005.5 |
| 20260506152756 | 45 | 120 | 0.0 | 0.9 | 0.00 | 0.80 | 0.80 | 99 | 1005.4 |
| 20260506152254 | 45 | 120 | 0.0 | 0.0 | 0.00 | 0.80 | 0.80 | 99 | 1005.4 |
| 20260506151753 | 44 | 107 | 0.9 | 0.9 | 0.00 | 0.80 | 0.80 | 99 | 1005.3 |
| 20260506151249 | 44 | 48 | 1.7 | 1.7 | 0.00 | 0.80 | 0.80 | 99 | 1005.0 |
| 20260506150745 | 44 | 132 | 0.0 | 0.9 | 0.00 | 0.80 | 0.80 | 99 | 1005.1 |
| 20260506150243 | 44 | 5 | 2.6 | 2.6 | 0.00 | 0.80 | 0.80 | 99 | 1005.0 |
| 20260506145739 | 44 | 108 | 0.9 | 0.9 | 0.00 | 0.80 | 0.80 | 99 | 1005.1 |
| 20260506145236 | 44 | 32 | 0.9 | 1.7 | 0.00 | 0.80 | 0.80 | 99 | 1005.0 |
| 20260506144733 | 44 | 134 | 0.9 | 0.9 | 0.00 | 0.80 | 0.80 | 99 | 1005.2 |
| 20260506144230 | 44 | 53 | 0.0 | 0.9 | 0.00 | 0.80 | 0.80 | 99 | 1005.0 |
| 20260506143728 | 44 | 133 | 0.0 | 0.0 | 0.00 | 0.80 | 0.80 | 99 | 1005.3 |
| 20260506143225 | 43 | 128 | 0.0 | 0.0 | 0.00 | 0.80 | 0.80 | 99 | 1005.1 |
| 20260506142724 | 44 | 133 | 0.0 | 0.0 | 0.00 | 0.80 | 0.80 | 99 | 1005.1 |
| 20260506142221 | 44 | 65 | 0.0 | 0.0 | 0.00 | 0.80 | 0.80 | 99 | 1005.1 |
| 20260506141719 | 43 | 131 | 0.0 | 0.0 | 0.00 | 0.80 | 0.80 | 99 | 1004.9 |
| 20260506141217 | 43 | 68 | 0.9 | 1.7 | 0.00 | 0.80 | 0.80 | 99 | 1004.8 |
| 20260506140715 | 43 | 134 | 0.0 | 0.0 | 0.05 | 0.80 | 0.80 | 99 | 1004.9 |
| 20260506140211 | 43 | 122 | 0.0 | 0.0 | 0.05 | 0.80 | 0.80 | 99 | 1004.9 |
| 20260506135708 | 44 | 110 | 0.9 | 0.9 | 0.00 | 0.79 | 0.79 | 99 | 1004.8 |
| 20260506135204 | 44 | 110 | 0.9 | 0.9 | 0.00 | 0.79 | 0.79 | 99 | 1004.6 |
| 20260506134701 | 44 | 123 | 0.0 | 0.0 | 0.00 | 0.79 | 0.79 | 99 | 1004.6 |
| 20260506134157 | 43 | 129 | 0.0 | 0.0 | 0.00 | 0.79 | 0.79 | 99 | 1004.9 |
| 20260506133655 | 43 | 126 | 0.0 | 0.0 | 0.07 | 0.79 | 0.79 | 99 | 1004.8 |
| 20260506133151 | 44 | 129 | 0.0 | 0.0 | 0.07 | 0.79 | 0.79 | 99 | 1004.9 |
| 20260506132649 | 43 | 129 | 0.0 | 0.0 | 0.00 | 0.78 | 0.78 | 99 | 1004.7 |
| 20260506132145 | 43 | 129 | 0.0 | 0.0 | 0.05 | 0.78 | 0.78 | 99 | 1004.8 |
| 20260506131643 | 43 | 107 | 0.0 | 0.0 | 0.05 | 0.78 | 0.78 | 99 | 1004.7 |
| 20260506131139 | 43 | 143 | 0.0 | 0.0 | 0.07 | 0.77 | 0.77 | 99 | 1004.9 |
| 20260506130636 | 43 | 132 | 0.0 | 0.0 | 0.07 | 0.77 | 0.77 | 99 | 1004.8 |
| 20260506130133 | 43 | 145 | 0.0 | 0.0 | 0.05 | 0.76 | 0.76 | 99 | 1004.6 |
| 20260506125631 | 43 | 156 | 0.0 | 0.0 | 0.05 | 0.76 | 0.76 | 99 | 1004.7 |
| 20260506125129 | 43 | 125 | 0.0 | 0.0 | 0.07 | 0.75 | 0.75 | 99 | 1004.7 |
| 20260506124627 | 43 | 132 | 0.0 | 0.0 | 0.07 | 0.75 | 0.75 | 99 | 1004.7 |
| 20260506124124 | 43 | 147 | 0.0 | 0.0 | 0.07 | 0.75 | 0.75 | 99 | 1004.6 |
| 20260506123622 | 43 | 114 | 0.0 | 0.9 | 0.00 | 0.74 | 0.74 | 99 | 1004.7 |
| 20260506123120 | 43 | 128 | 0.0 | 0.0 | 0.05 | 0.74 | 0.74 | 99 | 1004.6 |
| 20260506122616 | 42 | 131 | 0.0 | 0.0 | 0.05 | 0.74 | 0.74 | 99 | 1004.6 |
| 20260506122115 | 42 | 124 | 0.0 | 0.0 | 0.00 | 0.73 | 0.73 | 99 | 1004.5 |
| 20260506121612 | 43 | 138 | 0.0 | 0.0 | 0.00 | 0.73 | 0.73 | 99 | 1004.7 |
| 20260506121108 | 43 | 124 | 0.0 | 0.0 | 0.00 | 0.73 | 0.73 | 99 | 1004.6 |
| 20260506120606 | 43 | 125 | 0.0 | 0.0 | 0.00 | 0.73 | 0.73 | 99 | 1004.5 |
| 20260506120103 | 43 | 131 | 0.0 | 0.0 | 0.07 | 0.73 | 0.73 | 99 | 1004.6 |
| 20260506115601 | 43 | 125 | 0.0 | 0.0 | 0.07 | 0.73 | 0.73 | 99 | 1004.6 |
| 20260506115059 | 43 | 125 | 0.0 | 0.0 | 0.00 | 0.72 | 0.72 | 99 | 1005.0 |
| 20260506114556 | 43 | 117 | 0.0 | 0.0 | 0.07 | 0.72 | 0.72 | 99 | 1005.0 |
| 20260506114054 | 43 | 124 | 0.0 | 0.0 | 0.07 | 0.72 | 0.72 | 99 | 1004.7 |
| 20260506113552 | 43 | 125 | 0.0 | 0.0 | 0.05 | 0.71 | 0.71 | 99 | 1004.8 |
| 20260506113049 | 43 | 125 | 0.0 | 0.0 | 0.05 | 0.71 | 0.71 | 99 | 1004.7 |
| 20260506112546 | 43 | 122 | 0.0 | 0.9 | 0.07 | 0.70 | 0.70 | 99 | 1004.6 |
| 20260506112043 | 43 | 120 | 0.0 | 0.0 | 0.07 | 0.70 | 0.70 | 99 | 1004.3 |
| 20260506111541 | 43 | 132 | 0.0 | 0.0 | 0.05 | 0.69 | 0.69 | 99 | 1004.5 |
| 20260506111038 | 43 | 125 | 0.0 | 0.0 | 0.05 | 0.69 | 0.69 | 99 | 1004.6 |
| 20260506110535 | 43 | 125 | 0.0 | 0.0 | 0.00 | 0.68 | 0.68 | 99 | 1004.2 |
| 20260506110033 | 43 | 128 | 0.0 | 0.0 | 0.07 | 0.68 | 0.68 | 99 | 1004.3 |
| 20260506105528 | 43 | 132 | 0.0 | 0.0 | 0.07 | 0.68 | 0.68 | 99 | 1004.2 |
| 20260506105026 | 43 | 132 | 0.0 | 0.0 | 0.07 | 0.68 | 0.68 | 99 | 1004.2 |
| 20260506104524 | 44 | 113 | 0.9 | 1.7 | 0.05 | 0.67 | 0.67 | 99 | 1004.1 |
| 20260506104022 | 44 | 117 | 0.0 | 0.0 | 0.05 | 0.67 | 0.67 | 99 | 1004.3 |
| 20260506103519 | 44 | 97 | 0.0 | 0.0 | 0.07 | 0.66 | 0.66 | 99 | 1004.3 |
| 20260506103015 | 44 | 123 | 0.0 | 0.0 | 0.07 | 0.66 | 0.66 | 99 | 1004.3 |
| 20260506102514 | 43 | 123 | 0.0 | 0.0 | 0.05 | 0.65 | 0.65 | 99 | 1004.5 |
| 20260506102011 | 44 | 52 | 0.9 | 1.7 | 0.05 | 0.65 | 0.65 | 99 | 1004.6 |
| 20260506101507 | 43 | 125 | 0.0 | 0.0 | 0.07 | 0.64 | 0.64 | 99 | 1004.4 |